Location: Unspecified
(29.7382°N, 0.0000°E)
Time: 20:54:00
(UTC+00:00)

CZ-6A DEB - Visible Passes

Search period start: 04 April 2026 00:00
Search period end: 14 April 2026 00:00
Orbit: 650 x 796 km, 89.0° (Epoch: 28 March)

Date Brightness Start Highest point End Pass type
(mag) Time Alt. Az. Time Alt. Az. Time Alt. Az.
4 Apr ? 04:58:00 10° SE 05:01:55 22° E 05:05:48 10° NNE visible
4 Apr ? 18:45:50 10° NW 18:48:59 19° W 18:52:06 10° SW visible
6 Apr ? 04:57:47 10° SE 05:02:07 27° E 05:06:22 10° NNE visible
6 Apr ? 18:46:39 10° NW 18:49:05 14° W 18:51:31 10° WSW visible
8 Apr ? 04:57:40 10° SE 05:02:18 33° E 05:06:49 10° NNE visible
8 Apr ? 18:47:56 10° WNW 18:49:11 11° WNW 18:50:26 10° W visible
9 Apr ? 04:12:27 10° E 04:13:13 10° ENE 04:13:59 10° ENE visible
10 Apr ? 04:57:38 10° SSE 05:02:29 41° E 05:07:12 10° NNE visible
11 Apr ? 04:10:59 10° ESE 04:13:20 13° E 04:15:39 10° NE visible
12 Apr ? 04:57:40 10° SSE 05:02:40 51° E 05:07:30 10° N visible
13 Apr ? 04:10:18 10° ESE 04:13:27 17° E 04:16:32 10° NE visible
